Time,TemperatureF,DewpointF,PressureIn,WindDirection,WindDirectionDegrees,WindSpeedMPH,WindSpeedGustMPH,Humidity,HourlyPrecipIn,Conditions,Clouds,dailyrainin,SoftwareType,DateUTC
2013-03-19 00:01:00,54.1,51.0,29.91,North,355,9.0,-999.0,90,-99.99,,,0.00,weatherlink.com 1.10,2013-03-19 04:01:00,
2013-03-19 00:16:00,53.7,51.0,29.91,North,355,13.0,-999.0,90,-99.99,,,0.00,weatherlink.com 1.10,2013-03-19 04:16:00,
2013-03-19 00:31:00,53.3,51.0,29.91,North,355,8.0,-999.0,90,-99.99,,,0.00,weatherlink.com 1.10,2013-03-19 04:31:00,
2013-03-19 00:46:00,52.8,50.0,29.92,North,355,6.0,-999.0,90,-99.99,,,0.00,weatherlink.com 1.10,2013-03-19 04:46:00,
2013-03-19 01:01:00,52.4,49.0,29.92,NNW,348,10.0,-999.0,89,-99.99,,,0.00,weatherlink.com 1.10,2013-03-19 05:01:00,
2013-03-19 01:16:00,52.0,49.0,29.93,North,5,8.0,-999.0,88,-99.99,,,0.00,weatherlink.com 1.10,2013-03-19 05:16:00,
2013-03-19 01:31:00,51.5,48.0,29.93,NNW,344,13.0,-999.0,88,-99.99,,,0.00,weatherlink.com 1.10,2013-03-19 05:31:00,
2013-03-19 01:46:00,51.1,48.0,29.94,NNE,13,11.0,-999.0,88,-99.99,,,0.00,weatherlink.com 1.10,2013-03-19 05:46:00,
2013-03-19 02:02:00,50.5,47.0,29.95,North,360,9.0,-999.0,89,-99.99,,,0.00,weatherlink.com 1.10,2013-03-19 06:02:00,
2013-03-19 02:17:00,49.8,47.0,29.96,NNW,344,10.0,-999.0,89,-99.99,,,0.00,weatherlink.com 1.10,2013-03-19 06:17:00,
2013-03-19 02:32:00,49.3,46.0,29.96,North,360,13.0,-999.0,89,-99.99,,,0.00,weatherlink.com 1.10,2013-03-19 06:32:00,
2013-03-19 02:47:00,48.5,46.0,29.97,North,9,6.0,-999.0,89,-99.99,,,0.00,weatherlink.com 1.10,2013-03-19 06:47:00,
2013-03-19 03:02:00,47.8,45.0,29.98,NNE,23,8.0,-999.0,89,-99.99,,,0.00,weatherlink.com 1.10,2013-03-19 07:02:00,
2013-03-19 03:17:00,47.6,44.0,30.00,North,360,12.0,-999.0,87,-99.99,,,0.00,weatherlink.com 1.10,2013-03-19 07:17:00,
2013-03-19 03:32:00,46.9,43.0,30.00,North,10,12.0,-999.0,86,-99.99,,,0.00,weatherlink.com 1.10,2013-03-19 07:32:00,
2013-03-19 03:47:00,46.4,43.0,30.01,NNE,19,14.0,-999.0,86,-99.99,,,0.00,weatherlink.com 1.10,2013-03-19 07:47:00,
2013-03-19 04:02:00,46.0,42.0,30.02,NNE,18,10.0,-999.0,87,-99.99,,,0.00,weatherlink.com 1.10,2013-03-19 08:02:00,
2013-03-19 04:17:00,45.6,42.0,30.02,NNE,13,12.0,-999.0,87,-99.99,,,0.00,weatherlink.com 1.10,2013-03-19 08:17:00,
2013-03-19 04:32:00,45.1,42.0,30.02,NNE,26,9.0,-999.0,88,-99.99,,,0.00,weatherlink.com 1.10,2013-03-19 08:32:00,
2013-03-19 04:47:00,44.7,41.0,30.02,North,5,9.0,-999.0,88,-99.99,,,0.00,weatherlink.com 1.10,2013-03-19 08:47:00,
2013-03-19 05:02:00,44.3,41.0,30.03,NNE,29,9.0,-999.0,88,-99.99,,,0.00,weatherlink.com 1.10,2013-03-19 09:02:00,
2013-03-19 05:17:00,44.1,41.0,30.04,NNE,24,8.0,-999.0,87,-99.99,,,0.00,weatherlink.com 1.10,2013-03-19 09:17:00,
2013-03-19 05:32:00,43.7,40.0,30.04,ENE,71,4.0,-999.0,87,-99.99,,,0.00,weatherlink.com 1.10,2013-03-19 09:32:00,
2013-03-19 05:47:00,43.6,40.0,30.05,NE,44,8.0,-999.0,87,-99.99,,,0.00,weatherlink.com 1.10,2013-03-19 09:47:00,
2013-03-19 06:02:00,43.2,40.0,30.05,NE,42,4.0,-999.0,87,-99.99,,,0.00,weatherlink.com 1.10,2013-03-19 10:02:00,
2013-03-19 06:19:00,42.9,39.0,30.05,NNE,30,3.0,-999.0,87,-99.99,,,0.00,weatherlink.com 1.10,2013-03-19 10:19:00,
2013-03-19 06:32:00,42.7,39.0,30.05,NE,46,0.0,-999.0,87,-99.99,,,0.00,weatherlink.com 1.10,2013-03-19 10:32:00,
2013-03-19 06:47:00,42.5,39.0,30.05,NE,34,6.0,-999.0,86,-99.99,,,0.00,weatherlink.com 1.10,2013-03-19 10:47:00,
2013-03-19 07:02:00,42.2,38.0,30.05,NE,44,0.0,-999.0,86,-99.99,,,0.00,weatherlink.com 1.10,2013-03-19 11:02:00,
2013-03-19 07:17:00,41.6,38.0,30.05,NE,44,0.0,-999.0,87,-99.99,,,0.00,weatherlink.com 1.10,2013-03-19 11:17:00,
2013-03-19 07:32:00,41.2,38.0,30.05,NE,44,0.0,-999.0,88,-99.99,,,0.00,weatherlink.com 1.10,2013-03-19 11:32:00,
2013-03-19 07:48:00,40.6,38.0,30.05,NE,44,0.0,-999.0,89,-99.99,,,0.00,weatherlink.com 1.10,2013-03-19 11:48:00,
2013-03-19 08:03:00,40.6,38.0,30.05,East,83,0.0,-999.0,90,-99.99,,,0.00,weatherlink.com 1.10,2013-03-19 12:03:00,
2013-03-19 08:18:00,40.7,38.0,30.04,East,84,0.0,-999.0,90,-99.99,,,0.00,weatherlink.com 1.10,2013-03-19 12:18:00,
2013-03-19 08:33:00,40.5,38.0,30.05,East,84,0.0,-999.0,90,-99.99,,,0.00,weatherlink.com 1.10,2013-03-19 12:33:00,
2013-03-19 08:48:00,41.0,39.0,30.06,East,84,0.0,-999.0,91,-99.99,,,0.00,weatherlink.com 1.10,2013-03-19 12:48:00,
2013-03-19 09:03:00,43.2,39.0,30.07,ENE,72,4.0,-999.0,85,-99.99,,,0.00,weatherlink.com 1.10,2013-03-19 13:03:00,
2013-03-19 09:18:00,44.2,38.0,30.08,ENE,61,0.0,-999.0,80,-99.99,,,0.00,weatherlink.com 1.10,2013-03-19 13:18:00,
2013-03-19 09:33:00,45.1,38.0,30.07,NE,53,0.0,-999.0,75,-99.99,,,0.00,weatherlink.com 1.10,2013-03-19 13:33:00,
2013-03-19 09:48:00,45.8,37.0,30.08,ENE,59,0.0,-999.0,72,-99.99,,,0.00,weatherlink.com 1.10,2013-03-19 13:48:00,
2013-03-19 10:03:00,46.1,36.0,30.08,ENE,68,5.0,-999.0,69,-99.99,,,0.00,weatherlink.com 1.10,2013-03-19 14:03:00,
2013-03-19 10:18:00,47.7,38.0,30.08,ENE,74,0.0,-999.0,68,-99.99,,,0.00,weatherlink.com 1.10,2013-03-19 14:18:00,
2013-03-19 10:33:00,48.5,35.0,30.09,NNE,33,9.0,-999.0,59,-99.99,,,0.00,weatherlink.com 1.10,2013-03-19 14:33:00,
2013-03-19 10:48:00,48.6,34.0,30.10,North,5,6.0,-999.0,58,-99.99,,,0.00,weatherlink.com 1.10,2013-03-19 14:48:00,
2013-03-19 11:03:00,48.9,35.0,30.10,NNE,30,7.0,-999.0,59,-99.99,,,0.00,weatherlink.com 1.10,2013-03-19 15:03:00,
2013-03-19 11:18:00,49.3,34.0,30.10,NE,48,12.0,-999.0,55,-99.99,,,0.00,weatherlink.com 1.10,2013-03-19 15:18:00,
2013-03-19 11:33:00,50.3,37.0,30.10,ENE,60,10.0,-999.0,60,-99.99,,,0.00,weatherlink.com 1.10,2013-03-19 15:33:00,
2013-03-19 11:48:00,50.6,36.0,30.10,East,101,4.0,-999.0,57,-99.99,,,0.00,weatherlink.com 1.10,2013-03-19 15:48:00,
2013-03-19 12:03:00,51.3,35.0,30.10,NE,45,5.0,-999.0,54,-99.99,,,0.00,weatherlink.com 1.10,2013-03-19 16:03:00,
2013-03-19 12:18:00,52.3,33.0,30.11,North,355,10.0,-999.0,48,-99.99,,,0.00,weatherlink.com 1.10,2013-03-19 16:18:00,
2013-03-19 12:33:00,52.5,33.0,30.11,NNE,28,12.0,-999.0,48,-99.99,,,0.00,weatherlink.com 1.10,2013-03-19 16:33:00,
2013-03-19 12:48:00,53.1,31.0,30.11,North,5,14.0,-999.0,43,-99.99,,,0.00,weatherlink.com 1.10,2013-03-19 16:48:00,
2013-03-19 13:03:00,53.5,30.0,30.11,North,360,12.0,-999.0,41,-99.99,,,0.00,weatherlink.com 1.10,2013-03-19 17:03:00,
2013-03-19 13:21:00,53.5,30.0,30.12,NNE,21,16.0,-999.0,41,-99.99,,,0.00,weatherlink.com 1.10,2013-03-19 17:21:00,
2013-03-19 13:33:00,53.8,34.0,30.12,North,355,10.0,-999.0,47,-99.99,,,0.00,weatherlink.com 1.10,2013-03-19 17:33:00,
2013-03-19 14:04:00,54.3,33.0,30.13,NNW,341,7.0,-999.0,45,-99.99,,,0.00,weatherlink.com 1.10,2013-03-19 18:04:00,
2013-03-19 14:18:00,55.0,34.0,30.13,NE,42,6.0,-999.0,46,-99.99,,,0.00,weatherlink.com 1.10,2013-03-19 18:18:00,
2013-03-19 14:33:00,55.9,35.0,30.13,NNE,19,11.0,-999.0,45,-99.99,,,0.00,weatherlink.com 1.10,2013-03-19 18:33:00,
2013-03-19 14:48:00,55.4,34.0,30.13,NNW,331,7.0,-999.0,45,-99.99,,,0.00,weatherlink.com 1.10,2013-03-19 18:48:00,
2013-03-19 15:03:00,56.0,31.0,30.12,NNE,13,6.0,-999.0,39,-99.99,,,0.00,weatherlink.com 1.10,2013-03-19 19:03:00,
2013-03-19 15:18:00,56.3,33.0,30.12,NNE,19,11.0,-999.0,42,-99.99,,,0.00,weatherlink.com 1.10,2013-03-19 19:18:00,
2013-03-19 15:34:00,56.6,34.0,30.11,NE,38,5.0,-999.0,43,-99.99,,,0.00,weatherlink.com 1.10,2013-03-19 19:34:00,
2013-03-19 16:04:00,57.4,35.0,30.10,NNE,20,13.0,-999.0,44,-99.99,,,0.00,weatherlink.com 1.10,2013-03-19 20:04:00,
2013-03-19 16:18:00,57.7,35.0,30.10,NE,56,5.0,-999.0,43,-99.99,,,0.00,weatherlink.com 1.10,2013-03-19 20:18:00,
2013-03-19 16:33:00,58.4,35.0,30.10,NW,309,3.0,-999.0,42,-99.99,,,0.00,weatherlink.com 1.10,2013-03-19 20:33:00,
2013-03-19 16:48:00,58.8,34.0,30.09,NNE,28,8.0,-999.0,40,-99.99,,,0.00,weatherlink.com 1.10,2013-03-19 20:48:00,
2013-03-19 17:03:00,58.8,33.0,30.09,NE,55,5.0,-999.0,38,-99.99,,,0.00,weatherlink.com 1.10,2013-03-19 21:03:00,
2013-03-19 17:18:00,59.1,35.0,30.09,North,355,7.0,-999.0,40,-99.99,,,0.00,weatherlink.com 1.10,2013-03-19 21:18:00,
2013-03-19 17:34:00,58.6,35.0,30.09,North,5,7.0,-999.0,41,-99.99,,,0.00,weatherlink.com 1.10,2013-03-19 21:34:00,
2013-03-19 17:49:00,58.6,32.0,30.09,North,5,8.0,-999.0,36,-99.99,,,0.00,weatherlink.com 1.10,2013-03-19 21:49:00,
2013-03-19 18:19:00,58.7,33.0,30.08,NNE,28,8.0,-999.0,38,-99.99,,,0.00,weatherlink.com 1.10,2013-03-19 22:19:00,
2013-03-19 18:34:00,58.3,33.0,30.08,North,360,8.0,-999.0,39,-99.99,,,0.00,weatherlink.com 1.10,2013-03-19 22:34:00,
2013-03-19 18:49:00,57.9,34.0,30.08,North,5,9.0,-999.0,40,-99.99,,,0.00,weatherlink.com 1.10,2013-03-19 22:49:00,
2013-03-19 19:04:00,57.7,33.0,30.08,NE,47,10.0,-999.0,39,-99.99,,,0.00,weatherlink.com 1.10,2013-03-19 23:04:00,
2013-03-19 19:34:00,55.6,32.0,30.08,ENE,60,2.0,-999.0,41,-99.99,,,0.00,weatherlink.com 1.10,2013-03-19 23:34:00,
2013-03-19 19:49:00,54.6,32.0,30.07,NE,53,7.0,-999.0,42,-99.99,,,0.00,weatherlink.com 1.10,2013-03-19 23:49:00,
2013-03-19 20:04:00,54.0,31.0,30.07,NE,46,0.0,-999.0,41,-99.99,,,0.00,weatherlink.com 1.10,2013-03-20 00:04:00,
2013-03-19 20:19:00,53.3,31.0,30.07,NE,55,2.0,-999.0,42,-99.99,,,0.00,weatherlink.com 1.10,2013-03-20 00:19:00,
2013-03-19 20:34:00,52.6,30.0,30.06,ENE,65,0.0,-999.0,43,-99.99,,,0.00,weatherlink.com 1.10,2013-03-20 00:34:00,
2013-03-19 20:49:00,52.3,30.0,30.07,NE,49,0.0,-999.0,43,-99.99,,,0.00,weatherlink.com 1.10,2013-03-20 00:49:00,
2013-03-19 21:04:00,51.9,30.0,30.08,ENE,57,2.0,-999.0,44,-99.99,,,0.00,weatherlink.com 1.10,2013-03-20 01:04:00,
2013-03-19 21:19:00,51.5,30.0,30.08,NE,51,0.0,-999.0,44,-99.99,,,0.00,weatherlink.com 1.10,2013-03-20 01:19:00,
2013-03-19 21:34:00,50.9,29.0,30.09,ENE,61,3.0,-999.0,43,-99.99,,,0.00,weatherlink.com 1.10,2013-03-20 01:34:00,
2013-03-19 21:49:00,50.8,29.0,30.09,NE,40,5.0,-999.0,43,-99.99,,,0.00,weatherlink.com 1.10,2013-03-20 01:49:00,
2013-03-19 22:19:00,49.9,27.0,30.10,ENE,67,11.0,-999.0,41,-99.99,,,0.00,weatherlink.com 1.10,2013-03-20 02:19:00,
2013-03-19 22:34:00,49.4,26.0,30.10,NE,48,2.0,-999.0,41,-99.99,,,0.00,weatherlink.com 1.10,2013-03-20 02:34:00,
2013-03-19 22:49:00,48.9,26.0,30.11,ENE,66,0.0,-999.0,41,-99.99,,,0.00,weatherlink.com 1.10,2013-03-20 02:49:00,
2013-03-19 23:04:00,48.3,26.0,30.12,NE,47,4.0,-999.0,42,-99.99,,,0.00,weatherlink.com 1.10,2013-03-20 03:04:00,
2013-03-19 23:19:00,47.9,25.0,30.12,NE,43,0.0,-999.0,41,-99.99,,,0.00,weatherlink.com 1.10,2013-03-20 03:19:00,
2013-03-19 23:35:00,47.4,25.0,30.12,NE,40,2.0,-999.0,41,-99.99,,,0.00,weatherlink.com 1.10,2013-03-20 03:35:00,
2013-03-19 23:50:00,47.3,24.0,30.11,ENE,59,3.0,-999.0,40,-99.99,,,0.00,weatherlink.com 1.10,2013-03-20 03:50:00,